Weather History for Mammoth, CA

Change the Weather History Date:

Friday, September 6, 2013

  Actual Average Record
Temperature  
Mean Temperature 60 °F -  
Max Temperature 82 °F 71 °F 82 °F (2006)
Min Temperature 39 °F 55 °F 33 °F (2014)
Degree Days  
Heating Degree Days 4    
Growing Degree Days 10 (Base 50)    
Moisture  
Dew Point 32 °F    
Average Humidity 36    
Maximum Humidity 76    
Minimum Humidity 12    
Precipitation  
Precipitation 0.00 in - - ()
Sea Level Pressure  
Sea Level Pressure 30.25 in    
Wind  
Wind Speed 6 mph (SSW)    
Max Wind Speed 21 mph    
Max Gust Speed 32 mph    
Visibility 10 miles    
Events      
Averages and records for this station are not official NWS values.
T = Trace of Precipitation, MM = Missing Value Source: NWS Daily Summary

Daily Weather History Graph

Daily Weather History Graph

Search for Another Location

Airport:

Trip Planner

Search our weather history database for the weather conditions in past years. The results will help you decide how hot, cold, wet, or windy it might be!

Date:

Astronomy

Sep. 06, 2013 Rise Set
Actual Time 6:30 AM PDT 7:16 PM PDT
Civil Twilight 6:03 AM PDT 7:42 PM PDT
Nautical Twilight 5:32 AM PDT 8:14 PM PDT
Astronomical Twilight 4:59 AM PDT 8:46 PM PDT
Moon 7:44 AM PDT (9/6) 7:46 PM PDT (9/6)
Length of Visible Light 13h 39m
Length of Day
12h 46m
New Moon, 2% of the Moon is Illuminated
Sep 6
New Moon
Sep 12
First Quarter
Sep 19
Full
Sep 26
Last Quarter
Oct 4
New

Hourly Weather History & Observations

Time (PDT) Temp. Windchill Dew Point Humidity Pressure Visibility Wind Dir Wind Speed Gust Speed Precip Events Conditions
12:15 AM 66.2 °F - 32.0 °F 28% 30.28 in 10.0 mi SW 8.1 mph - N/A   Clear
12:35 AM 66.2 °F - 32.0 °F 28% 30.28 in 10.0 mi SW 10.4 mph 21.9 mph N/A   Clear
12:55 AM 59.0 °F - 35.6 °F 42% 30.28 in 10.0 mi ESE 6.9 mph - N/A   Clear
1:15 AM 57.2 °F - 33.8 °F 41% 30.27 in 10.0 mi SSE 3.5 mph - N/A   Clear
1:35 AM 57.2 °F - 35.6 °F 44% 30.27 in 10.0 mi SSE 6.9 mph - N/A   Clear
1:55 AM 57.2 °F - 35.6 °F 44% 30.27 in 10.0 mi SSE 9.2 mph - N/A   Clear
2:15 AM 55.4 °F - 33.8 °F 44% 30.27 in 10.0 mi ESE 9.2 mph - N/A   Clear
2:35 AM 55.4 °F - 35.6 °F 47% 30.26 in 10.0 mi SSE 5.8 mph - N/A   Clear
3:15 AM 51.8 °F - 35.6 °F 54% 30.26 in 10.0 mi Calm Calm - N/A   Clear
3:35 AM 48.2 °F - 35.6 °F 62% 30.26 in 10.0 mi Calm Calm - N/A   Clear
3:55 AM 51.8 °F - 35.6 °F 54% 30.26 in 10.0 mi Calm Calm - N/A   Clear
4:15 AM 46.4 °F - 33.8 °F 62% 30.26 in 10.0 mi Calm Calm - N/A   Clear
4:35 AM 44.6 °F - 33.8 °F 66% 30.26 in 10.0 mi Calm Calm - N/A   Clear
4:55 AM 44.6 °F - 33.8 °F 66% 30.26 in 10.0 mi Calm Calm - N/A   Clear
5:15 AM 42.8 °F 41.1 °F 33.8 °F 70% 30.26 in 10.0 mi North 3.5 mph - N/A   Clear
5:35 AM 42.8 °F - 33.8 °F 70% 30.27 in 10.0 mi Calm Calm - N/A   Clear
5:55 AM 44.6 °F - 33.8 °F 66% 30.27 in 10.0 mi Calm Calm - N/A   Clear
6:15 AM 42.8 °F - 33.8 °F 70% 30.27 in 10.0 mi Calm Calm - N/A   Clear
6:35 AM 39.2 °F - 32.0 °F 75% 30.28 in 10.0 mi Calm Calm - N/A   Clear
6:55 AM 41.0 °F - 32.0 °F 70% 30.28 in 10.0 mi Calm Calm - N/A   Clear
7:15 AM 41.0 °F 39.0 °F 33.8 °F 76% 30.29 in 10.0 mi WNW 3.5 mph - N/A   Clear
7:35 AM 46.4 °F - 33.8 °F 62% 30.30 in 10.0 mi Calm Calm - N/A   Clear
7:55 AM 53.6 °F - 35.6 °F 51% 30.29 in 10.0 mi Calm Calm - N/A   Clear
8:15 AM 59.0 °F - 35.6 °F 42% 30.29 in 10.0 mi Calm Calm - N/A   Clear
8:35 AM 62.6 °F - 35.6 °F 37% 30.30 in 10.0 mi SE 4.6 mph - N/A   Clear
8:55 AM 64.4 °F - 33.8 °F 32% 30.30 in 10.0 mi Calm Calm - N/A   Clear
9:15 AM 66.2 °F - 33.8 °F 30% 30.29 in 10.0 mi Calm Calm - N/A   Clear
9:35 AM 68.0 °F - 33.8 °F 28% 30.29 in 10.0 mi SSE 3.5 mph - N/A   Clear
9:55 AM 69.8 °F - 32.0 °F 25% 30.29 in 10.0 mi SSE 5.8 mph - N/A   Clear
10:15 AM 71.6 °F - 30.2 °F 22% 30.29 in 10.0 mi SE 3.5 mph - N/A   Clear
10:35 AM 73.4 °F - 28.4 °F 19% 30.29 in 10.0 mi ESE 5.8 mph - N/A   Clear
10:55 AM 75.2 °F - 28.4 °F 18% 30.28 in 10.0 mi SE 5.8 mph - N/A   Clear
11:15 AM 75.2 °F - 24.8 °F 15% 30.27 in 10.0 mi East 5.8 mph - N/A   Clear
11:35 AM 77.0 °F - 30.2 °F 18% 30.27 in 10.0 mi ESE 9.2 mph - N/A   Clear
11:55 AM 77.0 °F - 28.4 °F 17% 30.26 in 10.0 mi ESE 8.1 mph - N/A   Clear
12:15 PM 77.0 °F - 24.8 °F 14% 30.25 in 10.0 mi East 6.9 mph - N/A   Clear
12:35 PM 78.8 °F - 26.6 °F 15% 30.25 in 10.0 mi SE 10.4 mph - N/A   Clear
12:55 PM 80.6 °F - 26.6 °F 14% 30.25 in 10.0 mi East 8.1 mph - N/A   Clear
1:15 PM 80.6 °F - 26.6 °F 14% 30.24 in 10.0 mi ENE 3.5 mph - N/A   Clear
1:35 PM 80.6 °F - 26.6 °F 14% 30.24 in 10.0 mi Calm Calm - N/A   Scattered Clouds
1:55 PM 82.4 °F - 26.6 °F 13% 30.23 in 10.0 mi SE 12.7 mph 16.1 mph N/A   Scattered Clouds
2:15 PM 82.4 °F - 24.8 °F 12% 30.23 in 10.0 mi SSE 6.9 mph - N/A   Clear
2:35 PM 82.4 °F - 28.4 °F 14% 30.22 in 10.0 mi SW 8.1 mph - N/A   Clear
2:55 PM 82.4 °F - 28.4 °F 14% 30.22 in 10.0 mi WSW 8.1 mph 32.2 mph N/A   Mostly Cloudy
3:15 PM 82.4 °F - 28.4 °F 14% 30.21 in 10.0 mi WSW 13.8 mph 21.9 mph N/A   Mostly Cloudy
3:35 PM 80.6 °F - 28.4 °F 15% 30.21 in 10.0 mi WSW 13.8 mph 27.6 mph N/A   Mostly Cloudy
3:55 PM 80.6 °F - 30.2 °F 16% 30.21 in 10.0 mi West 18.4 mph 24.2 mph N/A   Scattered Clouds
4:15 PM 80.6 °F - 30.2 °F 16% 30.21 in 10.0 mi WNW 13.8 mph 31.1 mph N/A   Clear
4:35 PM 80.6 °F - 30.2 °F 16% 30.20 in 10.0 mi West 16.1 mph 26.5 mph N/A   Clear
5:15 PM 78.8 °F - 32.0 °F 18% 30.21 in 10.0 mi West 20.7 mph 26.5 mph N/A   Clear
5:55 PM 77.0 °F - 32.0 °F 19% 30.20 in 10.0 mi West 19.6 mph 25.3 mph N/A   Clear
6:15 PM 75.2 °F - 33.8 °F 22% 30.20 in 10.0 mi WNW 17.3 mph 24.2 mph N/A   Clear
6:35 PM 73.4 °F - 33.8 °F 23% 30.20 in 10.0 mi West 17.3 mph 24.2 mph N/A   Clear
6:55 PM 71.6 °F - 33.8 °F 25% 30.21 in 10.0 mi West 12.7 mph 20.7 mph N/A   Clear
7:15 PM 68.0 °F - 35.6 °F 30% 30.20 in 10.0 mi WNW 15.0 mph 29.9 mph N/A   Clear
7:35 PM 66.2 °F - 35.6 °F 32% 30.21 in 10.0 mi WNW 13.8 mph 28.8 mph N/A   Clear
7:55 PM 66.2 °F - 35.6 °F 32% 30.22 in 10.0 mi WNW 15.0 mph 21.9 mph N/A   Clear
8:15 PM 66.2 °F - 33.8 °F 30% 30.22 in 10.0 mi NW 6.9 mph 20.7 mph N/A   Clear
8:35 PM 66.2 °F - 33.8 °F 30% 30.23 in 10.0 mi WNW 3.5 mph - N/A   Clear
8:55 PM 64.4 °F - 32.0 °F 30% 30.23 in 10.0 mi WNW 5.8 mph - N/A   Clear
9:15 PM 60.8 °F - 32.0 °F 34% 30.24 in 10.0 mi Calm Calm - N/A   Clear
9:35 PM 59.0 °F - 33.8 °F 39% 30.24 in 10.0 mi Calm Calm - N/A   Clear
9:55 PM 59.0 °F - 35.6 °F 42% 30.24 in 10.0 mi Calm Calm - N/A   Clear
10:15 PM 55.4 °F - 35.6 °F 47% 30.24 in 10.0 mi Calm Calm - N/A   Clear
10:35 PM 55.4 °F - 35.6 °F 47% 30.25 in 10.0 mi Calm Calm - N/A   Clear
10:55 PM 53.6 °F - 35.6 °F 51% 30.26 in 10.0 mi Calm Calm - N/A   Clear
11:15 PM 51.8 °F - 35.6 °F 54% 30.25 in 10.0 mi Calm Calm - N/A   Clear
11:35 PM 50.0 °F - 33.8 °F 54% 30.26 in 10.0 mi WNW 3.5 mph - N/A   Clear
11:55 PM 50.0 °F - 33.8 °F 54% 30.26 in 10.0 mi Calm Calm - N/A   Clear